Overview Statistics Trail Chart Weather Telemetry Raw packets
 

This is the latest recevied weather packets stored in our database for station/object PY2WOA-13. If no packets are shown the sender has not sent any weather packets the latest 10 day(s).

<< 1 2 3 4 5 >>
Time Temp. Humidity Pressure Rain* Wind** Luminosity Snow
1788633304 22.78° C 96% 1009.9 hPa - - - -
1788631504 23.33° C 91% 1009.9 hPa - - - -
1788629704 23.89° C 93% 1009.8 hPa - - - -
1788627904 21.67° C 100% 1010.5 hPa - - - -
1788626104 21.67° C 100% 1010.4 hPa - - - -
1788624303 21.67° C 100% 1010 hPa - - - -
1788622503 21.67° C 100% 1012.9 hPa - - - -
1788620712 21.67° C 100% 1012.8 hPa - - - -
1788618904 21.67° C 91% 1012.7 hPa - - - -
1788617104 23.33° C 79% 1013.6 hPa - - - -
1788615304 27.78° C 56% 1009.4 hPa - - - -
1788613504 27.78° C 58% 1010.2 hPa - - - -
1788611704 25.56° C 65% 1011.4 hPa - - - -
1788609904 24.44° C 69% 1011.3 hPa - - - -
1788608103 23.33° C 76% 1011 hPa - - - -
1788606304 22.78° C 80% 1011.1 hPa - - - -
1788604504 21.67° C 84% 1011.2 hPa - - - -
1788602704 20.56° C 88% 1010.9 hPa - - - -
1788600904 20° C 88% 1010.9 hPa - - - -
1788599104 20° C 88% 1010.6 hPa - - - -
1788597304 20.56° C 86% 1009.9 hPa - - - -
1788595503 20.56° C 85% 1009.7 hPa - - - -
1788593704 21.11° C 85% 1009.8 hPa - - - -
1788591904 21.11° C 86% 1009.8 hPa - - - -
1788590104 21.11° C 86% 1009.8 hPa - - - -

* Rain since midnight (hover to see other rain measurements)
** Current wind speed in m/s (hover to see current wind gust speed)